| time (UTC) | temp F | wind direction | speed knots | gust knots | rain 1hr in | rain 24hr in | rain mn in | humidity % | barometer mb |
| 20260504190032 | 82 | 120 | 3.5 | 8.7 | 0.00 | 0.00 | 0.00 | 59 | 1013.4 |
| 20260504184533 | 82 | 161 | 0.9 | 7.8 | 0.00 | 0.00 | 0.00 | 60 | 1013.7 |
| 20260504183039 | 84 | 141 | 3.5 | 7.0 | 0.00 | 0.00 | 0.00 | 58 | 1013.8 |
| 20260504181528 | 82 | 202 | 3.5 | 11.3 | 0.00 | 0.00 | 0.00 | 58 | 1013.9 |
| 20260504180024 | 82 | 110 | 1.7 | 8.7 | 0.00 | 0.00 | 0.00 | 59 | 1014.0 |
| 20260504174522 | 81 | 120 | 1.7 | 6.1 | 0.00 | 0.00 | 0.00 | 60 | 1014.5 |
| 20260504173018 | 80 | 108 | 0.9 | 7.0 | 0.00 | 0.00 | 0.00 | 61 | 1014.5 |
| 20260504171515 | 79 | 154 | 3.5 | 8.7 | 0.00 | 0.00 | 0.00 | 63 | 1014.9 |
| 20260504081502 | 58 | 110 | 0.0 | 0.0 | 0.00 | 0.00 | 0.00 | 85 | 1016.3 |
| 20260504044540 | 62 | 139 | 0.0 | 0.0 | 0.00 | 0.00 | 0.00 | 74 | 1018.4 |
| 20260504043033 | 62 | 139 | 0.0 | 0.0 | 0.00 | 0.00 | 0.00 | 74 | 1018.5 |
| 20260504041532 | 63 | 139 | 0.0 | 0.0 | 0.00 | 0.00 | 0.00 | 73 | 1018.6 |
| 20260504040032 | 63 | 139 | 0.0 | 1.7 | 0.00 | 0.00 | 0.00 | 73 | 1018.5 |
| 20260504034551 | 65 | 169 | 0.0 | 1.7 | 0.00 | 0.00 | 0.00 | 69 | 1018.4 |
| 20260504033031 | 66 | 132 | 0.0 | 1.7 | 0.00 | 0.00 | 0.00 | 65 | 1018.6 |
| 20260504031531 | 67 | 153 | 0.0 | 1.7 | 0.00 | 0.00 | 0.00 | 64 | 1018.3 |
| 20260504030040 | 67 | 134 | 0.9 | 3.5 | 0.00 | 0.00 | 0.00 | 63 | 1018.3 |
| 20260504024529 | 68 | 122 | 0.9 | 4.3 | 0.00 | 0.00 | 0.00 | 61 | 1018.2 |
| 20260504023028 | 68 | 186 | 0.9 | 4.3 | 0.00 | 0.00 | 0.00 | 60 | 1018.1 |
| 20260504021527 | 69 | 176 | 0.0 | 4.3 | 0.00 | 0.00 | 0.00 | 58 | 1018.0 |
| 20260504020027 | 70 | 139 | 1.7 | 4.3 | 0.00 | 0.00 | 0.00 | 57 | 1017.9 |
| 20260504014536 | 70 | 144 | 0.9 | 5.2 | 0.00 | 0.00 | 0.00 | 55 | 1017.7 |
| 20260504013026 | 71 | 176 | 0.9 | 6.1 | 0.00 | 0.00 | 0.00 | 54 | 1017.7 |
| 20260504011525 | 72 | 124 | 2.6 | 6.1 | 0.00 | 0.00 | 0.00 | 53 | 1017.8 |
| 20260504010028 | 72 | 155 | 0.9 | 3.5 | 0.00 | 0.00 | 0.00 | 53 | 1017.6 |
| 20260504004524 | 73 | 158 | 0.9 | 5.2 | 0.00 | 0.00 | 0.00 | 52 | 1017.6 |
| 20260504003030 | 74 | 150 | 0.0 | 5.2 | 0.00 | 0.00 | 0.00 | 51 | 1017.7 |
| 20260504001522 | 74 | 160 | 1.7 | 6.1 | 0.00 | 0.00 | 0.00 | 49 | 1017.6 |
| 20260504000023 | 76 | 151 | 2.6 | 6.1 | 0.00 | 0.00 | 0.00 | 48 | 1017.6 |
| 20260503234535 | 77 | 126 | 2.6 | 6.1 | 0.00 | 0.00 | 0.00 | 46 | 1017.7 |
| 20260503233021 | 78 | 168 | 1.7 | 7.0 | 0.00 | 0.00 | 0.00 | 43 | 1017.6 |
| 20260503231518 | 79 | 124 | 0.9 | 6.1 | 0.00 | 0.00 | 0.00 | 39 | 1017.9 |
| 20260503230022 | 80 | 126 | 0.9 | 3.5 | 0.00 | 0.00 | 0.00 | 39 | 1017.8 |
| 20260503224516 | 81 | 156 | 1.7 | 7.8 | 0.00 | 0.00 | 0.00 | 36 | 1018.1 |
| 20260503223017 | 80 | 176 | 0.9 | 5.2 | 0.00 | 0.00 | 0.00 | 37 | 1018.2 |
| 20260503221513 | 80 | 179 | 2.6 | 6.1 | 0.00 | 0.00 | 0.00 | 38 | 1018.4 |
| 20260503220013 | 81 | 136 | 0.9 | 5.2 | 0.00 | 0.00 | 0.00 | 40 | 1018.5 |
| 20260503214513 | 81 | 126 | 1.7 | 5.2 | 0.00 | 0.00 | 0.00 | 37 | 1018.5 |
| 20260503213009 | 82 | 72 | 0.0 | 5.2 | 0.00 | 0.00 | 0.00 | 39 | 1018.9 |
| 20260503211507 | 81 | 129 | 0.9 | 6.1 | 0.00 | 0.00 | 0.00 | 35 | 1019.1 |
| 20260503210006 | 82 | 140 | 0.9 | 4.3 | 0.00 | 0.00 | 0.00 | 38 | 1019.3 |
| 20260503204504 | 82 | 276 | 2.6 | 5.2 | 0.00 | 0.00 | 0.00 | 37 | 1019.4 |
| 20260503203002 | 82 | 123 | 1.7 | 6.1 | 0.00 | 0.00 | 0.00 | 36 | 1019.7 |
| 20260503201605 | 82 | 112 | 0.0 | 5.2 | 0.00 | 0.00 | 0.00 | 40 | 1019.8 |
| 20260503200101 | 82 | 186 | 0.9 | 4.3 | 0.00 | 0.00 | 0.00 | 41 | 1020.3 |
| 20260503194553 | 81 | 314 | 1.7 | 6.1 | 0.00 | 0.00 | 0.00 | 38 | 1020.4 |
| 20260503193055 | 81 | 131 | 0.9 | 3.5 | 0.00 | 0.00 | 0.00 | 44 | 1020.7 |
| 20260503191556 | 81 | 141 | 1.7 | 5.2 | 0.00 | 0.00 | 0.00 | 43 | 1020.9 |